GOES 9 1 23581U 95025A 12036.32234794 -.00000230 00000-0 10000-3 0 2854 2 23581 007.5733 058.9314 0005736 339.3094 020.7739 00.98803070 60940 GOES 11 1 26352U 00022A 12028.55393675 .00000012 00000-0 00000+0 0 6762 2 26352 000.9737 138.5801 0001710 342.5316 238.8776 00.99042364 42986 NADEZHDA 6 1 26384U 00033A 12037.34559291 .00000211 00000-0 48995-4 0 8510 2 26384 098.2679 094.7327 0016815 080.9961 279.3144 14.64550032620044 NOAA 16 1 26536U 00055A 12037.51644503 .00000367 00000-0 22263-3 0 6141 2 26536 099.1139 077.4998 0011347 095.0167 265.2313 14.12703929586441 GOES 12 1 26871U 01031A 12037.27232494 -.00000286 00000-0 10000-3 0 4418 2 26871 001.9623 074.4414 0001669 279.3375 179.9191 01.00283904 38677 NOAA 17 1 27453U 02032A 12036.40127819 .00000234 00000-0 11867-3 0 5869 2 27453 098.3539 070.0579 0011721 181.5621 178.5532 14.24390702499852 INSAT 3A 1 27714U 03013A 12036.81270387 -.00000258 00000-0 10000-3 0 9569 2 27714 000.0739 252.5668 0006188 053.0680 215.7630 01.00271964 32369 NOAA 18 1 28654U 05018A 12036.45062263 .00000048 00000-0 51539-4 0 630 2 28654 099.0289 353.5558 0014313 165.0914 195.0691 14.11599467345837 MSG 2 1 28912U 05049B 12034.04089951 .00000003 00000-0 00000+0 0 225 2 28912 000.3930 358.0569 0002311 213.6159 295.9788 01.00281076 22488 METOP-A 1 29499U 06044A 12037.35982003 .00000050 00000-0 42758-4 0 6486 2 29499 098.7196 098.3526 0002112 077.2604 282.8831 14.21476337274991 NAVSTAR 59 (USA 192) 1 29601U 06052A 12036.36225290 .00000006 00000-0 10000-3 0 6203 2 29601 056.0588 060.3107 0037850 352.6659 007.3524 02.00574641 38245 NAVSTAR 60 (USA 196) 1 32260U 07047A 12036.18204339 -.00000028 00000-0 00000+0 0 3256 2 32260 054.2511 297.8543 0042677 357.7709 002.2663 02.00553987 31636 NAVSTAR 61 (USA 199) 1 32384U 07062A 12036.49332912 -.00000006 00000-0 10000-3 0 3614 2 32384 055.1679 121.4838 0024053 289.7655 070.0131 02.00566421 30368 NOAA 19 1 33591U 09005A 12036.42878303 -.00000084 00000-0 -21956-4 0 2514 2 33591 098.8522 337.9494 0014834 038.8083 321.4146 14.11288607154285 STERKH 1 35636U 09039B 12037.53841567 .00000073 00000-0 46785-4 0 2724 2 35636 082.9520 041.7903 0021057 131.8221 228.4747 13.89516145129197 STERKH 2 1 35866U 09049B 12037.52210102 .00000068 00000-0 49944-4 0 1413 2 35866 098.6729 094.9388 0004136 071.5295 288.6334 14.22436473123933